TimeEST,TemperatureF,Dew PointF,Humidity,Sea Level PressureIn,VisibilityMPH,Wind Direction,Wind SpeedMPH,Gust SpeedMPH,PrecipitationIn,Events,Conditions,WindDirDegrees,DateUTC
12:15 AM,35.6,28.4,75,30.46,10.0,Calm,Calm,-,N/A,,Overcast,0,2012-11-14 05:15:00
12:35 AM,33.8,28.4,81,30.47,10.0,Calm,Calm,-,N/A,,Overcast,0,2012-11-14 05:35:00
12:55 AM,35.6,28.4,75,30.47,10.0,Calm,Calm,-,N/A,,Overcast,0,2012-11-14 05:55:00
1:15 AM,32.0,30.2,93,30.47,10.0,Calm,Calm,-,N/A,,Overcast,0,2012-11-14 06:15:00
1:35 AM,33.8,28.4,81,30.47,10.0,Calm,Calm,-,N/A,,Mostly Cloudy,0,2012-11-14 06:35:00
1:55 AM,33.8,28.4,81,30.47,10.0,NW,3.5,-,N/A,,Mostly Cloudy,320,2012-11-14 06:55:00
2:15 AM,33.8,28.4,81,30.48,10.0,NW,3.5,-,N/A,,Overcast,320,2012-11-14 07:15:00
2:35 AM,35.6,30.2,81,30.48,10.0,NNW,3.5,-,N/A,,Overcast,330,2012-11-14 07:35:00
2:55 AM,35.6,30.2,81,30.48,10.0,NNW,3.5,-,N/A,,Overcast,330,2012-11-14 07:55:00
3:15 AM,35.6,30.2,81,30.48,10.0,NNW,3.5,-,N/A,,Overcast,330,2012-11-14 08:15:00
3:35 AM,35.6,30.2,81,30.48,10.0,Calm,Calm,-,N/A,,Overcast,0,2012-11-14 08:35:00
3:55 AM,32.0,30.2,93,30.49,10.0,Calm,Calm,-,N/A,,Mostly Cloudy,0,2012-11-14 08:55:00
4:15 AM,32.0,28.4,87,30.49,10.0,Calm,Calm,-,N/A,,Scattered Clouds,0,2012-11-14 09:15:00
4:35 AM,30.2,28.4,93,30.49,10.0,Calm,Calm,-,N/A,,Clear,0,2012-11-14 09:35:00
4:55 AM,28.4,28.4,100,30.49,10.0,Calm,Calm,-,N/A,,Clear,0,2012-11-14 09:55:00
5:15 AM,28.4,28.4,100,30.50,10.0,Calm,Calm,-,N/A,,Clear,0,2012-11-14 10:15:00
5:35 AM,28.4,28.4,100,30.50,10.0,Calm,Calm,-,N/A,,Clear,0,2012-11-14 10:35:00
6:45 AM,28.4,26.6,93,30.52,10.0,Calm,Calm,-,N/A,,Clear,0,2012-11-14 11:45:00
7:45 AM,33.8,28.4,81,30.53,10.0,Calm,Calm,-,N/A,,Clear,0,2012-11-14 12:45:00
8:45 AM,39.2,24.8,56,30.54,15.0,NE,12.7,20.7,N/A,,Clear,50,2012-11-14 13:45:00
10:45 AM,44.6,24.8,46,30.53,15.0,NNE,8.1,15.0,N/A,,Clear,30,2012-11-14 15:45:00
11:45 AM,46.4,26.6,46,30.51,20.0,East,9.2,17.3,N/A,,Scattered Clouds,80,2012-11-14 16:45:00
12:45 PM,46.4,26.6,46,30.49,10.0,NE,9.2,17.3,N/A,,Partly Cloudy,50,2012-11-14 17:45:00
1:45 PM,48.2,24.8,40,30.48,20.0,North,5.8,-,N/A,,Partly Cloudy,360,2012-11-14 18:45:00
2:45 PM,48.2,23.0,37,30.48,10.0,NE,5.8,-,N/A,,Partly Cloudy,50,2012-11-14 19:45:00
3:45 PM,46.4,23.0,40,30.48,10.0,NE,6.9,-,N/A,,Partly Cloudy,50,2012-11-14 20:45:00
4:45 PM,42.8,23.0,46,30.48,10.0,NE,6.9,-,N/A,,Partly Cloudy,40,2012-11-14 21:45:00
5:45 PM,41.0,21.2,45,30.48,10.0,NNE,5.8,-,N/A,,Partly Cloudy,20,2012-11-14 22:45:00
6:45 PM,33.8,23.0,65,30.49,10.0,Calm,Calm,-,N/A,,Clear,0,2012-11-14 23:45:00
7:45 PM,30.2,26.6,86,30.49,10.0,Calm,Calm,-,N/A,,Clear,0,2012-11-15 00:45:00
8:45 PM,32.0,24.8,75,30.49,10.0,Calm,Calm,-,N/A,,Clear,0,2012-11-15 01:45:00
9:45 PM,35.6,23.0,60,30.47,10.0,NNE,6.9,-,N/A,,Clear,30,2012-11-15 02:45:00
9:55 PM,32.0,24.8,75,30.45,10.0,Calm,Calm,-,N/A,,Clear,0,2012-11-15 02:55:00
10:15 PM,32.0,24.8,75,30.45,10.0,Calm,Calm,-,N/A,,Clear,0,2012-11-15 03:15:00
10:35 PM,30.2,24.8,80,30.46,10.0,Calm,Calm,-,N/A,,Clear,0,2012-11-15 03:35:00
10:55 PM,28.4,24.8,86,30.47,10.0,Calm,Calm,-,N/A,,Clear,0,2012-11-15 03:55:00
11:15 PM,28.4,26.6,93,30.47,10.0,Calm,Calm,-,N/A,,Clear,0,2012-11-15 04:15:00
11:35 PM,26.6,24.8,93,30.47,10.0,Calm,Calm,-,N/A,,Clear,0,2012-11-15 04:35:00
11:55 PM,26.6,26.6,100,30.48,10.0,Calm,Calm,-,N/A,,Clear,0,2012-11-15 04:55:00